Date,TemperatureHighF,TemperatureAvgF,TemperatureLowF,DewpointHighF,DewpointAvgF,DewpointLowF,HumidityHigh,HumidityAvg,HumidityLow,PressureMaxIn,PressureMinIn,WindSpeedMaxMPH,WindSpeedAvgMPH,GustSpeedMaxMPH,PrecipitationSumIn
2013-5-1,81,74,69,61,50,40,66,45,26,30.05,29.94,19,3,19,0.00
2013-5-2,76,70,65,63,59,52,82,67,50,30.00,29.86,21,5,21,0.02
2013-5-3,74,68,62,63,59,53,91,73,48,29.93,29.88,12,3,12,0.00
2013-5-4,79,70,62,63,58,51,88,68,42,30.00,29.86,17,3,17,0.00
2013-5-5,78,70,64,64,60,53,84,69,42,30.01,29.88,21,5,21,0.01
2013-5-6,69,65,62,63,60,55,89,82,72,30.01,29.85,22,6,22,0.04
2013-5-7,68,63,58,60,58,54,91,82,75,30.02,29.97,19,5,19,0.19
2013-5-8,68,65,61,60,59,58,89,82,74,30.00,29.90,15,4,15,0.00
2013-5-9,72,66,32,62,60,32,91,82,62,29.97,29.91,20,3,20,0.00
2013-5-10,70,66,62,63,61,57,92,84,64,29.97,29.92,15,3,15,0.00
2013-5-11,69,65,62,62,59,54,89,80,67,29.95,29.86,23,5,23,0.00
2013-5-12,68,64,60,59,56,52,83,76,63,29.89,29.82,21,6,21,0.00
2013-5-13,70,65,59,60,56,48,89,74,55,29.95,29.85,22,6,22,0.00
2013-5-14,71,64,56,58,49,32,81,57,36,29.99,29.88,17,5,17,0.00
2013-5-15,69,65,61,60,56,51,85,74,56,29.89,29.69,14,4,14,0.00
2013-5-16,80,70,66,64,58,51,91,65,43,29.70,29.49,18,7,26,0.06
2013-5-17,68,66,62,64,59,54,93,79,65,29.93,29.56,23,7,23,0.05
2013-5-18,81,70,60,60,52,39,82,57,29,29.98,29.83,14,3,14,0.00
2013-5-19,75,66,61,63,56,50,88,71,50,30.07,29.80,29,8,29,0.00
2013-5-20,69,64,60,59,55,51,83,73,55,30.11,30.06,17,4,17,0.00
2013-5-21,75,65,58,59,52,43,86,63,37,30.08,29.77,22,5,22,0.09
2013-5-22,81,71,62,64,58,53,89,64,46,29.77,29.30,30,7,30,0.58
2013-5-23,67,63,59,60,57,54,92,82,67,29.69,29.36,28,9,28,0.05
2013-5-24,67,63,62,58,54,48,83,70,55,29.88,29.69,32,12,32,0.00
2013-5-25,64,59,54,53,50,46,89,71,57,29.92,29.85,28,9,28,0.14
2013-5-26,64,61,59,52,48,40,76,63,50,30.02,29.85,32,11,32,0.00
2013-5-27,65,61,56,53,50,49,81,70,60,30.03,29.89,16,4,16,0.00
2013-5-28,77,65,56,60,52,44,82,63,33,29.90,29.61,16,4,16,0.00
2013-5-29,67,63,60,60,56,48,87,77,59,29.76,29.66,20,7,20,0.00
2013-5-30,64,59,54,53,51,47,88,74,59,29.79,29.71,31,6,31,0.15
2013-5-31,64,60,54,59,54,48,88,80,64,29.80,29.72,27,7,27,0.19